一网星座-0231星 (ONEWEB-0231 )

导读 | 豆包AI

ONEWEB-0231是英国一网公司(OneWeb)旗下低轨卫星互联网星座的成员,于2021年5月28日发射入轨。作为OneWeb全球组网计划的一部分,它运行在近地轨道,旨在为全球各个地区提供高速、低延迟的宽带互联网接入服务,助力消除数字鸿沟,推动偏远地区互联互通,是商业航天领域卫星互联网建设的重要节点。

Basic Information
目录编号:
48782
目录名称:
ONEWEB-0231
国际标识:
2021-045R
轨道中心:
EARTH
卫星名称:
一网星座-0231星
卫星全名:
一网星座-0231星 (ONEWEB-0231 )
卫星状态:
在轨 (已飞行1751 天)
发射日期:
2021-05-28 UTC
国别 :
英国 (GB)
星等 :
--
Orbit Information
数据来源 国际轨道数据 AOE轨道数据
星历时间 2026-03-14T03:46:09+0800
14小时前
查看轨道信息
2026-03-14T09:00:00+0800
9小时前
查看轨道信息
半长轴 7579.911km 7579.91km
偏心率 0.0001842 0.0001814
轨道倾角 87.894° 87.893°
近地点辐角 96.105° 96.240°
升交点赤经 278.238° 278.195°
平近点角 264.029° 215.503°
近地点 1200.377km 1200.398km
远地点 1203.171km 1203.148km
周期 109.460分钟 109.460分钟
每日圈数 13.155478 13.15548
Detailed Information
平衡模式:
三轴稳定
覆盖范围:
全球
运营商:
一网卫星公司
运营商所在国:
英国
制造商(研发单位):
一网卫星公司
制造商所在国:
英国
使用方式:
暂无
Satellite Introduction
OneWeb卫星网络由648颗重约125公斤的微型卫星组成,运行在1200公里的轨道上。 每颗卫星都能够提供至少每秒8千兆位的吞吐量,以使用其高吞吐量的Ku频段有效载荷为家庭和移动平台提供互联网接入。该卫星仍在工作。
2D Orbit Map
3D Orbit Map
Orbit Altitude Analysis Chart
Orbit Inclination Analysis Chart
Orbit Comprehensive Analysis Chart
View Comprehensive Chart